Flag for China Weather past 2 weeks in Chongqing, Chongqing Municipality, China

Now
90 °F

Clear.


Feels Like: 95 °F
Forecast: 82 / 97 °F
Wind: 1 mph from North

Location: Chongqing Airport

Current Time: Jul 28, 2015 at 9:38:30 PM

Latest Report: Jul 28, 2015 at 9:00 PM


Visibility: 10 mi

Pressure: 29.68 "Hg

Humidity: 52%

Dew point: 70 °F

Location of ChongqingLocation

Historic Weather in Chongqing — Graph

°F

Chongqing temperature yesterday

Maximum temperature yesterday: 95 °F (at 3:00 PM)
Minimum temperature yesterday: 77 °F (at 5:00 AM)
Average temperature yesterday: 86 °F

Past Weeks' High & Low Weather Summary

 TemperatureHumidityPressure
High95 °F (Jul 18, 3:00 PM)94% (Jul 14, 11:00 PM)29.77 "Hg (Jul 14, 11:00 PM)
Low72 °F (Jul 15, 2:00 AM)30% (Jul 18, 6:00 PM)29.56 "Hg (Jul 14, 6:00 PM)
Average83 °F65%29.68 "Hg
* Reported Jul 13 8:00 PM — Jul 28 8:00 PM, Chongqing, Weather by CustomWeather, © 2015

Note: Actual official high and low records may vary slightly from our data, if they occured in-between our weather recording intervals... More about our weather records

Advertising

Chongqing weather history for previous 24 hours

 ConditionsComfort  
Time TempWeatherWind HumidityBarometerVisibility
8:00 PM
Tue, Jul 28
88 °FClear.1 mph52%29.68 "Hg10 mi
7:00 PM91 °FSunny.1 mph46%29.65 "Hg10 mi
6:00 PM91 °FSunny.1 mph46%29.65 "Hg10 mi
5:00 PM93 °FPassing clouds.6 mph39%29.65 "HgN/A
4:00 PM93 °FPassing clouds.6 mph44%29.65 "HgN/A
3:00 PM93 °FPassing clouds.6 mph47%29.68 "HgN/A
2:00 PM91 °FScattered clouds.6 mph49%29.71 "HgN/A
1:00 PM91 °FSunny.3 mph52%29.71 "Hg10 mi
12:00 PM90 °FPassing clouds.6 mph49%29.74 "HgN/A
11:00 AM88 °FPassing clouds.6 mph55%29.74 "HgN/A
10:00 AM86 °FSunny.6 mph59%29.74 "Hg10 mi
9:00 AM84 °FPassing clouds.3 mph58%29.74 "HgN/A
8:00 AM82 °FSunny.1 mph62%29.74 "Hg10 mi
7:00 AM79 °FSunny.3 mph70%29.71 "Hg10 mi
6:00 AM79 °FClear.No wind70%29.71 "Hg10 mi
5:00 AM79 °FClear.1 mph65%29.71 "Hg10 mi
4:00 AM79 °FClear.3 mph65%29.71 "Hg10 mi
3:00 AM81 °FClear.3 mph66%29.71 "Hg10 mi
2:00 AM82 °FClear.1 mph58%29.71 "Hg10 mi
1:00 AM82 °FClear.1 mph62%29.74 "Hg10 mi
12:00 AM82 °FClear.1 mph58%29.71 "Hg10 mi
11:00 PM
Mon, Jul 27
84 °FClear.3 mph55%29.71 "Hg10 mi
10:00 PM84 °FClear.3 mph55%29.71 "Hg10 mi
9:00 PM88 °FClear.3 mph46%29.68 "Hg10 mi
Weather by CustomWeather, © 2015

See weather overviewHow to use our weather pages